Weather reports worldwide

Advertisment
Shoreham Airport, United Kingdom (3876): temperature & dewpoint: 11.10.2018 05:00:00 - 17.10.2018 05:00:00 (BST)Shoreham Airport, United Kingdom (3876): wind speed & gusts: 11.10.2018 05:00:00 - 17.10.2018 05:00:00 (BST)Shoreham Airport, United Kingdom (3876): wind direction: 11.10.2018 05:00:00 - 17.10.2018 05:00:00 (BST)Shoreham Airport, United Kingdom (3876): reduced air pressure: 11.10.2018 05:00:00 - 17.10.2018 05:00:00 (BST)Shoreham Airport, United Kingdom (3876): visibility: 11.10.2018 05:00:00 - 17.10.2018 05:00:00 (BST)Shoreham Airport, United Kingdom (3876): precipitation: 11.10.2018 05:00:00 - 17.10.2018 05:00:00 (BST)
Date & Time tt [°C] td [°C] ff [km/h] ff [kn] fx [km/h] fx [kn] dd ppp [hPa] vv [km] rr [mm]
17.10.2018 05:00:00 10,3 8,7 2 1 - - WSW 1017,5 - 0,0
17.10.2018 04:00:00 13,1 10,6 4 2 - - W 1017,5 - 0,0
17.10.2018 03:00:00 10,8 9,5 2 1 - - W 1017,7 - 0,0
17.10.2018 02:00:00 12,7 10,3 9 5 - - WSW 1017,8 - 0,0
17.10.2018 01:00:00 13,7 11,1 15 8 - - WSW 1017,8 - 0,0
17.10.2018 00:00:00 14,1 11,9 15 8 - - WSW 1018,0 - 0,0
16.10.2018 23:00:00 14,4 12,4 9 5 - - SW 1017,8 - 0,0
16.10.2018 22:00:00 14,3 12,4 9 5 - - SW 1017,9 - 0,0
16.10.2018 21:00:00 14,5 13,5 11 6 - - SW 1018,0 - 0,0
16.10.2018 20:00:00 15,1 12,3 16 9 - - SW 1017,6 10 0,0
16.10.2018 19:00:00 15,6 13,3 13 7 - - SW 1017,3 10 0,0
16.10.2018 18:00:00 15,9 14,4 16 9 - - SW 1016,9 10 0,0
16.10.2018 17:00:00 16,2 14,5 15 8 - - SSW 1016,5 10 0,0
16.10.2018 16:00:00 16,5 14,3 21 11 - - SSW 1016,5 10 0,0
16.10.2018 15:00:00 16,0 13,6 24 13 - - SSW 1016,8 10 0,0
16.10.2018 14:00:00 16,3 13,8 22 12 - - S 1016,7 10 0,0
16.10.2018 13:00:00 18,6 15,3 18 10 - - S 1016,4 10 0,0
16.10.2018 12:00:00 18,5 15,1 13 7 - - S 1016,3 10 0,0
16.10.2018 11:00:00 18,7 16,0 13 7 - - S 1016,4 10 0,0
16.10.2018 10:00:00 17,6 17,2 11 6 - - S 1015,9 10 0,0
16.10.2018 09:00:00 14,7 14,6 4 2 - - N 1015,7 10 0,0
16.10.2018 08:00:00 9,0 8,8 5 3 - - E 1015,4 8 0,0
16.10.2018 07:00:00 11,2 11,1 4 2 - - N 1014,9 - 0,0
16.10.2018 06:00:00 11,5 11,3 5 3 - - N 1014,4 - 0,0
16.10.2018 05:00:00 12,7 12,6 9 5 - - N 1014,4 - 0,0
16.10.2018 04:00:00 13,1 12,9 8 4 - - N 1014,1 - 0,0
16.10.2018 03:00:00 13,9 13,7 5 3 - - NNE 1014,5 - 0,0
16.10.2018 02:00:00 13,4 13,2 5 3 - - NNE 1014,5 - 0,0
16.10.2018 01:00:00 14,2 14,0 5 3 - - NE 1014,4 - 0,0
16.10.2018 00:00:00 14,3 14,2 9 5 - - NNE 1014,6 - 0,0
15.10.2018 23:00:00 14,1 13,9 11 6 - - N 1014,4 - 0,0
15.10.2018 22:00:00 13,8 13,5 11 6 - - N 1014,0 - 0,0
15.10.2018 21:00:00 12,6 12,2 13 7 - - N 1013,5 - 0,0
15.10.2018 20:00:00 11,9 11,3 9 5 - - N 1013,0 10 0,0
15.10.2018 19:00:00 13,3 12,1 4 2 - - - 1012,7 10 0,0
15.10.2018 18:00:00 15,9 13,2 8 4 - - SE 1012,3 10 0,0
15.10.2018 17:00:00 17,2 13,7 8 4 - - SSE 1011,9 10 0,0
15.10.2018 16:00:00 18,0 14,4 5 3 - - S 1011,4 - 0,0
15.10.2018 15:00:00 19,2 14,5 5 3 - - S 1011,0 10 0,0
15.10.2018 14:00:00 17,8 16,2 5 3 - - NNW 1010,5 10 0,0
15.10.2018 13:00:00 15,6 14,4 13 7 - - N 1010,4 7 0,0
15.10.2018 12:00:00 15,1 14,6 16 9 - - N 1010,1 5 0,0
15.10.2018 11:00:00 13,7 13,0 16 9 - - N 1009,5 7 0,0
15.10.2018 10:00:00 13,6 13,1 22 12 - - N 1008,7 7 0,0
15.10.2018 09:00:00 13,0 12,5 18 10 - - N 1008,1 8 0,0
15.10.2018 08:00:00 12,5 12,1 24 13 - - N 1007,2 9 0,0
15.10.2018 07:00:00 12,4 12,0 16 9 - - N 1007,1 - 0,0
15.10.2018 06:00:00 12,5 11,9 13 7 - - N 1006,8 - 0,0
15.10.2018 05:00:00 12,5 11,9 9 5 - - N 1006,7 - 0,0
15.10.2018 04:00:00 11,7 11,1 24 13 - - N 1005,7 - 0,0
15.10.2018 03:00:00 11,1 10,6 28 15 - - N 1005,8 - 0,6
15.10.2018 02:00:00 10,8 10,4 24 13 - - N 1007,1 - 0,2
15.10.2018 01:00:00 10,7 10,2 26 14 - - N 1007,2 - 0,0
15.10.2018 00:00:00 10,6 10,2 29 16 - - N 1006,2 - 4,6
14.10.2018 23:00:00 10,7 10,1 34 18 46 25 N 1006,3 - 5,2
14.10.2018 22:00:00 11,3 10,2 29 16 52 28 N 1006,4 - 0,2
14.10.2018 21:00:00 11,7 10,3 35 19 46 25 N 1006,1 - 0,0
14.10.2018 20:00:00 11,8 10,3 34 18 - - N 1006,1 - 0,0
14.10.2018 19:00:00 12,1 10,8 28 15 - - N 1006,2 10 0,0
14.10.2018 18:00:00 12,2 11,0 31 17 46 25 N 1005,8 10 0,0
14.10.2018 17:00:00 12,7 11,7 28 15 - - N 1005,5 - 0,0
14.10.2018 16:00:00 12,8 12,1 26 14 - - N 1004,9 10 0,0
14.10.2018 15:00:00 13,0 12,4 28 15 - - N 1004,5 9 0,0
14.10.2018 14:00:00 13,4 12,7 28 15 - - N 1003,9 10 0,0
14.10.2018 13:00:00 13,2 12,5 22 12 - - N 1004,2 9 0,0
14.10.2018 12:00:00 13,5 12,4 21 11 - - NNW 1004,5 8 0,0
14.10.2018 11:00:00 14,4 13,4 18 10 - - N 1003,7 10 0,0
14.10.2018 10:00:00 14,1 13,2 21 11 - - N 1003,7 10 0,0
14.10.2018 09:00:00 14,0 13,1 26 14 - - N 1004,0 10 0,0
14.10.2018 08:00:00 14,0 13,2 26 14 - - N 1003,8 - 0,2
14.10.2018 07:00:00 14,3 13,4 21 11 - - N 1003,9 - 0,0
14.10.2018 06:00:00 15,3 14,3 5 3 - - ENE 1005,1 - 3,0
14.10.2018 05:00:00 15,6 14,3 2 1 - - NE 1005,3 - 0,0
14.10.2018 04:00:00 15,3 14,2 8 4 - - NNW 1005,9 - 0,0
14.10.2018 03:00:00 16,0 14,4 2 1 - - W 1006,8 - 0,0
14.10.2018 02:00:00 17,1 15,1 5 3 - - WSW 1007,3 - 0,0
14.10.2018 01:00:00 18,0 15,6 13 7 - - S 1007,2 - 0,0
14.10.2018 00:00:00 18,4 16,0 16 9 - - S 1008,0 - 0,0
13.10.2018 23:00:00 18,6 16,4 18 10 - - S 1008,3 - 0,0
13.10.2018 22:00:00 18,4 16,3 9 5 - - SE 1008,7 - 0,0
13.10.2018 21:00:00 19,4 16,2 21 11 - - SSE 1009,0 - 0,0
13.10.2018 20:00:00 18,9 16,3 16 9 - - SE 1009,1 - 0,0
13.10.2018 19:00:00 18,5 16,4 13 7 - - SE 1009,0 - 0,0
13.10.2018 18:00:00 18,7 16,3 15 8 - - E 1008,8 10 0,0
13.10.2018 17:00:00 19,6 16,6 16 9 - - E 1008,7 10 0,0
13.10.2018 16:00:00 20,1 17,0 15 8 - - ESE 1009,1 10 0,0
13.10.2018 15:00:00 20,3 16,8 26 14 - - E 1009,2 10 0,0
13.10.2018 14:00:00 20,8 17,0 15 8 - - ESE 1010,3 10 0,0
13.10.2018 13:00:00 19,1 16,6 9 5 - - ESE 1011,2 10 0,0
13.10.2018 12:00:00 19,9 16,6 13 7 - - SE 1012,1 10 0,0
13.10.2018 11:00:00 18,7 15,7 9 5 - - SE 1012,8 10 0,0
13.10.2018 10:00:00 18,6 15,3 18 10 - - SSE 1013,0 10 0,0
13.10.2018 09:00:00 18,5 14,6 24 13 - - SSE 1012,6 - 0,0
13.10.2018 08:00:00 18,2 14,1 28 15 - - SSE 1012,3 - 0,0
13.10.2018 07:00:00 18,1 14,6 22 12 - - SSE 1012,3 - 0,0
13.10.2018 06:00:00 18,2 14,7 21 11 - - SSE 1012,5 - 0,0
13.10.2018 05:00:00 18,2 14,7 18 10 - - SSE 1012,5 - 0,0
13.10.2018 04:00:00 18,3 14,6 26 14 - - SSE 1012,7 - 0,0
13.10.2018 03:00:00 18,3 14,7 26 14 - - SSE 1012,9 - 0,0
13.10.2018 02:00:00 18,5 14,6 26 14 - - SSE 1013,2 - 0,0
13.10.2018 01:00:00 18,3 14,3 18 10 - - S 1013,3 - 0,0
13.10.2018 00:00:00 18,9 14,6 29 16 50 27 S 1013,2 - 0,0
12.10.2018 23:00:00 18,4 15,2 21 11 - - SSE 1013,4 - 0,0
12.10.2018 22:00:00 18,7 15,2 26 14 - - SSE 1013,4 - 0,0
12.10.2018 21:00:00 18,8 14,7 24 13 - - SSE 1013,1 - 0,0
12.10.2018 20:00:00 18,4 15,0 21 11 - - SSE 1013,4 10 0,0
12.10.2018 19:00:00 18,6 15,1 21 11 - - S 1012,7 10 0,0
12.10.2018 18:00:00 18,8 15,1 24 13 - - S 1012,1 10 0,0
12.10.2018 17:00:00 18,7 15,2 24 13 - - SSE 1011,9 10 0,0
12.10.2018 16:00:00 19,3 15,5 26 14 - - SSE 1012,3 10 0,0
12.10.2018 15:00:00 18,6 15,0 26 14 46 25 SSE 1012,4 10 0,0
12.10.2018 14:00:00 18,2 13,4 31 17 48 26 SSE 1012,0 10 0,0
12.10.2018 13:00:00 18,4 13,3 29 16 46 25 SSE 1012,0 10 0,0
12.10.2018 12:00:00 18,0 13,0 29 16 - - S 1012,1 10 0,0
12.10.2018 11:00:00 17,9 13,2 29 16 48 26 S 1012,0 10 0,0
12.10.2018 10:00:00 17,3 13,3 29 16 54 29 S 1011,5 10 0,0
12.10.2018 09:00:00 16,8 13,3 34 18 52 28 S 1011,4 10 0,0
12.10.2018 08:00:00 16,4 13,1 35 19 54 29 S 1010,7 10 0,0
12.10.2018 07:00:00 16,0 13,2 34 18 52 28 S 1010,2 - 0,0
12.10.2018 06:00:00 15,9 13,2 37 20 54 29 S 1010,1 - 0,0
12.10.2018 05:00:00 15,8 13,3 35 19 54 29 S 1010,2 - 0,0
12.10.2018 04:00:00 15,7 13,0 31 17 48 26 S 1009,8 - 0,0
12.10.2018 03:00:00 15,5 13,1 31 17 52 28 SSW 1009,8 - 0,0
12.10.2018 02:00:00 15,5 13,0 34 18 52 28 SSW 1009,5 - 0,0
12.10.2018 01:00:00 15,5 13,6 35 19 46 25 SSW 1009,1 - 0,0
12.10.2018 00:00:00 15,5 13,8 34 18 46 25 SSW 1008,7 - 0,0
11.10.2018 23:00:00 15,4 13,5 26 14 - - SSW 1008,1 - 0,0
11.10.2018 22:00:00 15,2 13,4 24 13 - - SSW 1007,6 - 0,0
11.10.2018 21:00:00 15,6 14,0 18 10 - - SSW 1006,8 - 0,0
11.10.2018 20:00:00 15,9 14,5 22 12 - - S 1006,3 - 0,4
11.10.2018 19:00:00 15,8 14,3 35 19 50 27 SSW 1006,3 8 0,4
11.10.2018 18:00:00 17,0 14,6 26 14 46 25 S 1005,5 9 0,8
11.10.2018 17:00:00 17,3 15,3 22 12 - - S 1005,4 10 0,2
11.10.2018 16:00:00 17,8 15,2 21 11 - - S 1004,8 10 0,0
11.10.2018 15:00:00 18,5 15,3 26 14 - - S 1004,5 10 0,0
11.10.2018 14:00:00 18,3 15,3 26 14 46 25 S 1004,4 10 0,0
11.10.2018 13:00:00 18,5 15,2 26 14 - - SSE 1003,9 10 0,0
11.10.2018 12:00:00 18,4 15,3 28 15 - - SSE 1003,8 10 0,0
11.10.2018 11:00:00 18,3 15,4 24 13 - - SSE 1004,2 10 0,0
11.10.2018 10:00:00 17,5 15,1 28 15 - - SSE 1004,4 10 0,0
11.10.2018 09:00:00 17,0 14,7 26 14 - - SSE 1004,5 10 0,0
11.10.2018 08:00:00 16,3 14,4 21 11 - - SSE 1004,1 10 0,0
11.10.2018 07:00:00 16,3 14,1 26 14 - - SSE 1003,9 - 0,0
11.10.2018 06:00:00 16,3 13,7 26 14 - - SSE 1003,8 - 0,0
11.10.2018 05:00:00 16,4 13,7 24 13 - - SSE 1003,5 - 0,0

tt = temperature
td = dewpoint
ff = wind speed
fx = gusts
dd = wind direction
ppp = reduced air pressure
vv = visibility
rr = precipitation

Next stations